Satellite: UARS
Catalog number: 21701
Epoch time:      06068.42013991
Element set:     707
Inclination:      056.9779 deg
RA of node:       162.0792 deg
Eccentricity:    0.0109130
Arg of perigee:   021.2939 deg
Mean anomaly:     339.2566 deg
Mean motion:   15.42339884 rev/day
Decay rate:      3.544e-05 rev/day^2
Epoch rev:           79390
Checksum:              317

Satellite: PO-34
Catalog number: 25520
Epoch time:      06067.93415956
Element set:    0411
Inclination:      028.4596 deg
RA of node:       341.7941 deg
Eccentricity:    0.0005468
Arg of perigee:   225.1659 deg
Mean anomaly:     134.8492 deg
Mean motion:   15.16629110 rev/day
Decay rate:       5.13e-06 rev/day^2
Epoch rev:           40681
Checksum:              305

Satellite: ISS
Catalog number: 25544
Epoch time:      06069.02886057
Element set:     495
Inclination:      051.6452 deg
RA of node:       337.6204 deg
Eccentricity:    0.0008763
Arg of perigee:   346.5237 deg
Mean anomaly:     119.5535 deg
Mean motion:   15.74209211 rev/day
Decay rate:     1.8161e-04 rev/day^2
Epoch rev:           41753
Checksum:              302

Satellite: OO-38
Catalog number: 26063
Epoch time:      06068.22209752
Element set:     563
Inclination:      100.1871 deg
RA of node:       341.2777 deg
Eccentricity:    0.0037241
Arg of perigee:   029.3107 deg
Mean anomaly:     331.0160 deg
Mean motion:   14.35755947 rev/day
Decay rate:       -2.4e-07 rev/day^2
Epoch rev:           32032
Checksum:              271

Satellite: NO-45
Catalog number: 26932
Epoch time:      06067.89620500
Element set:    0260
Inclination:      067.0575 deg
RA of node:       265.6930 deg
Eccentricity:    0.0007634
Arg of perigee:   284.0791 deg
Mean anomaly:     075.9429 deg
Mean motion:   14.29518505 rev/day
Decay rate:        9.9e-07 rev/day^2
Epoch rev:           23163
Checksum:              320

Satellite: UWE-1
Catalog number: 28892
Epoch time:      06067.74918864
Element set:     391
Inclination:      098.1735 deg
RA of node:       327.5390 deg
Eccentricity:    0.0018240
Arg of perigee:   122.3909 deg
Mean anomaly:     237.9062 deg
Mean motion:   14.59313205 rev/day
Decay rate:       1.80e-06 rev/day^2
Epoch rev:            1932
Checksum:              308

Satellite: XI-V
Catalog number: 28895
Epoch time:      06068.70400058
Element set:     375
Inclination:      098.1752 deg
RA of node:       328.5245 deg
Eccentricity:    0.0018823
Arg of perigee:   119.6607 deg
Mean anomaly:     240.6458 deg
Mean motion:   14.59369278 rev/day
Decay rate:       1.77e-06 rev/day^2
Epoch rev:            1934
Checksum:              329

Satellite: NCUBE2
Catalog number: 28897
Epoch time:      06068.00619342
Element set:      38
Inclination:      098.1757 deg
RA of node:       327.8371 deg
Eccentricity:    0.0018089
Arg of perigee:   122.0381 deg
Mean anomaly:     238.2577 deg
Mean motion:   14.59521956 rev/day
Decay rate:       1.56e-06 rev/day^2
Epoch rev:            1151
Checksum:              313

Satellite: AO-54
Catalog number: 28933
Epoch time:      06068.21676081
Element set:      43
Inclination:      051.6415 deg
RA of node:       341.4119 deg
Eccentricity:    0.0007557
Arg of perigee:   016.4036 deg
Mean anomaly:     343.7376 deg
Mean motion:   15.77012921 rev/day
Decay rate:     3.9788e-04 rev/day^2
Epoch rev:             524
Checksum:              303

/EX



----
Via the keps mailing list at AMSAT.ORG courtesy of AMSAT-NA.
To unsubscribe, send "unsubscribe keps" to Majordomo@amsat.org

--- ViaMAIL!/WC v1.60d
 * Origin: Chowdanet (401-724-4410) telnet://chowdanet.com  (1:323/120)